Wind_Speed
29 28 28 27 27 27 27 28 29 30 32 34 36 37 37 37 38 39 39 40 41 41 41 40 39 40 40 37 31 26 23 20 20 20 19 18 18 17 16 16 15 13 12 12 12 12 12 11 11 11 10 10 10 11 11 11 11 12 12 13 15 16 17 19 21 22 24 25 27 29 30 31 32 33 33 34 34 35 35 35 36 36 35 36 37 38 39 37
30 30 29 29 28 28 28 28 29 30 31 34 36 37 38 37 38 39 39 40 40 40 40 39 38 39 40 37 30 25 22 20 19 18 17 17 16 16 15 14 13 11 10 9 8 8 9 9 9 8 8 8 8 7 8 8 9 10 11 11 11 12 13 14 16 18 19 20 22 23 25 26 26 27 27 27 28 28 29 30 31 31 30 31 32 33 33 31
32 32 31 31 30 29 28 28 29 30 31 34 36 37 38 38 38 38 39 39 40 40 40 38 37 38 39 37 30 25 22 20 19 17 16 15 15 14 13 11 10 9 7 5 5 5 6 7 7 6 6 5 5 4 5 6 7 8 7 6 6 7 8 10 11 12 13 14 15 17 18 18 19 19 19 19 19 20 21 22 23 24 23 24 24 24 23 22
34 34 33 33 32 31 30 29 30 30 31 33 36 37 38 38 38 39 39 38 39 39 40 38 36 37 38 36 30 24 20 20 19 17 15 13 12 12 10 8 8 6 4 3 2 2 4 5 3 2 2 2 2 2 3 4 4 2 1 1 2 4 5 6 6 7 8 8 9 11 12 12 12 12 13 13 13 13 14 14 15 15 15 15 15 14 13 13
35 35 35 35 34 32 31 30 30 30 31 33 35 37 38 39 38 39 38 37 38 38 39 37 35 36 37 36 30 23 19 18 17 16 14 11 9 9 7 6 5 4 2 1 1 2 3 2 3 3 1 0 1 1 1 1 1 0 1 1 2 2 3 4 5 5 6 6 6 6 6 6 6 6 8 9 9 9 8 8 8 8 8 7 7 8 9 9
37 36 36 36 35 34 32 32 31 31 31 33 35 37 38 39 39 39 38 36 36 37 38 36 34 34 36 36 31 24 19 17 15 13 12 9 7 7 5 4 3 2 2 2 2 2 2 3 5 5 3 2 3 4 4 2 1 1 3 5 6 6 6 7 7 8 9 9 8 6 4 2 0 3 6 7 7 6 6 5 5 5 5 5 6 7 7 6
40 39 38 37 37 36 34 33 33 33 32 33 35 37 38 39 39 39 37 36 35 36 37 35 33 33 34 35 30 24 20 18 14 12 10 7 6 4 2 3 1 3 4 3 3 3 4 5 6 6 4 3 4 5 5 3 2 4 5 7 7 7 8 8 9 10 10 10 9 8 6 4 4 5 7 8 9 9 9 8 7 7 6 6 6 6 4 3
42 41 40 39 38 37 36 35 35 34 34 34 36 37 39 39 38 38 37 35 34 35 36 35 32 31 32 33 30 23 20 17 14 12 10 7 4 3 1 1 5 6 6 6 6 7 7 8 8 5 4 3 4 4 4 4 4 6 6 6 7 7 7 8 9 9 10 10 9 7 6 5 5 8 9 10 10 11 11 10 9 9 8 7 6 5 4 2
43 43 42 41 40 39 38 37 37 36 36 36 36 38 39 38 38 38 37 35 34 34 35 33 31 30 31 32 29 22 18 16 14 12 10 6 3 3 1 4 7 6 7 8 8 9 9 9 8 6 5 4 3 4 5 6 6 7 8 7 7 6 6 6 7 8 8 8 7 6 6 5 5 9 12 11 10 11 11 11 11 9 8 6 5 5 3 2
45 45 44 43 42 41 40 39 39 38 38 37 37 38 39 38 38 38 37 35 33 33 34 32 30 29 29 30 28 22 17 16 14 12 9 6 3 3 2 5 8 8 9 8 9 10 10 9 8 7 6 4 4 6 9 9 9 9 10 9 9 8 7 8 8 8 8 8 7 6 4 5 5 8 11 11 10 10 9 9 9 8 6 5 4 4 3 1
47 46 46 46 45 44 43 41 41 40 39 38 38 38 39 39 37 37 37 35 32 32 33 32 29 28 27 29 28 22 17 14 13 12 9 6 3 2 2 7 10 11 11 9 10 10 9 8 8 7 8 6 4 9 11 10 10 11 11 12 11 11 10 11 10 9 9 9 8 6 4 2 2 2 6 8 9 9 7 6 7 6 4 4 4 3 3 3
47 48 47 47 47 46 45 44 42 41 40 38 38 39 39 38 37 37 37 35 32 31 32 31 29 27 26 27 27 23 17 13 12 11 9 5 2 1 4 8 10 11 10 8 8 8 7 8 9 8 10 10 8 10 11 10 11 12 12 13 12 12 12 12 12 10 10 9 8 6 4 2 2 2 1 5 6 7 5 4 5 4 4 5 5 6 6 6
44 46 48 48 48 47 46 45 44 42 39 38 38 39 39 38 37 37 37 35 32 30 31 30 28 26 25 25 26 23 17 12 11 11 8 4 0 2 5 8 8 8 8 6 6 7 9 10 10 10 13 15 14 13 12 11 12 12 12 12 12 12 13 13 12 11 9 8 6 5 5 5 3 2 1 3 4 5 5 5 6 6 6 7 7 8 9 8
42 43 46 48 49 48 47 46 44 41 39 37 38 38 38 38 37 37 37 34 31 30 30 29 27 25 24 24 24 23 17 11 10 9 6 2 2 4 5 9 7 8 6 4 6 8 10 11 10 12 16 18 16 13 12 12 12 12 11 12 12 12 14 14 14 12 11 9 5 2 2 3 3 4 4 5 5 6 7 7 7 8 8 8 8 10 10 9
42 41 42 46 48 48 47 46 44 41 38 37 38 38 38 38 37 37 36 33 30 29 29 28 27 24 23 23 22 22 17 10 9 7 4 1 4 5 6 10 9 8 5 4 9 10 11 12 13 15 17 19 17 14 13 13 12 12 11 11 11 11 13 14 14 14 13 11 8 4 2 2 2 3 4 5 5 6 7 7 7 8 9 9 10 11 10 10
42 41 40 42 45 47 47 46 43 40 38 38 38 38 38 38 37 37 35 32 30 28 28 27 26 24 22 22 21 21 17 10 9 6 0 3 5 6 7 10 10 9 8 8 11 11 12 13 13 14 17 18 17 16 15 14 13 12 12 12 11 11 12 14 15 15 14 12 10 7 5 4 4 4 4 4 5 6 6 6 6 8 10 11 11 11 10 12
43 41 40 40 42 44 45 45 43 40 38 38 38 38 39 38 38 37 35 32 29 28 28 27 26 24 22 21 20 20 17 10 8 6 3 6 6 7 7 9 10 10 11 12 12 11 11 12 13 14 15 17 16 16 15 14 13 13 13 12 11 12 12 14 16 16 15 13 11 9 7 6 6 5 4 4 5 6 6 7 8 10 11 11 12 12 13 17
43 42 40 39 40 42 43 42 41 39 37 37 38 39 39 38 38 36 33 31 28 27 27 26 25 23 21 20 19 19 17 10 7 5 4 6 5 7 7 9 10 12 13 13 13 12 10 11 13 13 14 14 15 16 15 13 12 12 12 12 11 12 14 16 17 17 17 15 12 11 9 8 8 8 7 6 7 8 8 9 9 10 11 12 13 15 17 21
43 42 40 39 39 40 40 40 38 36 36 36 38 39 39 39 38 35 32 30 28 27 27 25 25 23 20 20 19 18 16 10 5 4 6 7 8 7 8 11 12 12 14 13 13 12 10 9 10 11 13 15 15 16 14 12 11 12 13 13 13 14 15 17 18 18 18 17 15 12 11 10 11 11 10 10 10 10 10 10 9 10 11 13 16 18 20 24
43 41 40 39 38 38 39 37 35 34 35 36 37 39 39 39 37 33 32 31 28 27 26 24 24 23 20 19 18 17 15 11 5 3 7 8 10 11 10 14 14 13 15 13 11 11 10 8 7 8 11 13 16 17 14 11 11 13 14 14 15 15 16 18 19 19 19 18 17 15 13 12 12 13 12 12 12 11 11 11 10 10 13 16 18 21 24 27
43 41 40 38 37 37 37 35 33 33 34 36 37 39 39 38 36 32 31 31 29 27 25 24 23 23 20 18 17 16 15 12 7 3 6 9 11 14 14 15 14 14 15 12 10 11 11 9 7 7 6 7 12 15 14 12 11 13 13 13 14 15 15 17 19 19 18 17 17 17 16 14 14 14 13 13 13 13 12 12 12 12 15 18 20 23 27 29
43 41 40 39 37 36 36 34 32 32 35 36 37 39 39 37 35 32 32 32 29 26 25 23 22 22 21 18 16 15 14 13 9 5 6 10 13 16 16 16 13 13 14 11 11 12 12 10 9 8 5 5 10 13 12 11 11 12 12 11 11 12 13 15 17 18 18 17 17 17 18 17 16 15 13 13 14 14 13 13 14 15 17 19 21 25 28 30
43 41 40 39 37 35 35 33 32 32 35 36 37 38 39 37 34 32 32 32 29 26 25 23 21 21 21 18 16 14 13 12 10 7 7 10 15 18 19 17 14 13 13 12 13 13 12 11 10 9 7 7 10 12 10 10 11 11 11 11 10 10 12 14 16 18 18 18 17 17 18 17 16 15 14 14 14 15 14 14 16 17 19 21 23 25 28 29
43 41 39 38 36 35 34 33 32 33 35 37 37 38 38 36 32 32 33 32 29 26 26 23 21 21 21 18 16 14 12 10 10 9 9 10 15 20 21 19 18 17 15 14 14 13 12 11 10 9 8 8 11 11 9 9 10 11 11 10 9 9 11 12 13 15 17 18 18 17 18 17 16 15 14 14 15 15 15 15 17 19 20 22 24 26 27 28
43 41 40 38 36 34 33 33 32 33 35 37 37 38 38 34 32 33 34 32 28 27 26 23 21 22 21 17 16 16 13 10 9 9 11 12 14 20 23 21 21 20 18 16 16 15 13 11 9 9 8 8 9 10 9 9 9 10 9 8 8 8 9 10 11 13 15 16 17 18 18 17 15 14 14 15 15 15 14 15 17 20 21 22 24 25 25 26
43 41 40 38 36 34 33 33 32 33 35 36 37 37 37 34 32 34 35 31 29 28 26 23 22 22 20 16 17 17 13 10 9 9 11 13 15 20 24 23 22 23 20 18 17 16 15 13 11 10 8 7 8 10 11 11 11 9 7 7 7 7 5 5 8 10 11 13 14 16 18 17 15 13 13 14 15 14 14 15 17 19 21 22 23 23 24 24
44 42 41 39 36 34 34 33 33 34 35 36 36 36 36 34 33 35 35 32 30 29 26 23 24 22 20 18 18 16 13 12 10 10 10 13 17 21 24 24 24 24 22 19 18 17 16 14 12 11 9 8 10 12 13 12 11 9 7 7 7 5 2 3 6 8 8 10 12 15 17 17 16 14 13 13 13 14 13 14 16 17 19 21 22 22 22 21
44 43 42 38 36 35 35 35 35 35 35 36 35 35 36 35 33 35 36 33 31 29 25 24 24 21 20 20 16 13 14 13 11 10 10 12 17 21 24 25 24 24 22 20 19 18 17 15 13 12 11 10 13 15 14 13 11 10 9 7 7 4 1 1 5 6 8 8 10 13 15 16 16 14 13 12 12 12 12 13 15 16 17 19 20 20 20 19
45 45 43 38 37 36 36 37 36 35 35 35 35 35 36 36 34 35 37 34 31 29 25 25 24 21 20 20 15 13 15 14 10 9 10 13 17 20 23 25 26 26 24 23 21 19 18 18 16 14 13 12 15 17 16 13 11 12 11 8 8 6 7 3 4 6 7 8 9 12 13 14 14 14 14 13 12 11 11 12 13 14 16 17 19 19 18 18
45 46 43 38 37 38 37 38 37 36 36 36 36 36 37 38 36 35 37 36 31 29 26 25 23 22 22 20 17 16 14 13 11 11 13 13 15 19 23 25 28 28 26 25 24 21 20 19 18 16 14 14 15 17 17 15 13 13 13 10 8 7 8 7 3 5 5 6 8 10 12 13 14 14 13 12 12 11 10 11 11 13 14 16 17 18 18 17
47 46 44 40 39 39 39 38 37 37 37 37 37 37 38 39 37 36 38 37 32 29 27 25 24 24 23 21 20 19 17 15 13 12 14 13 14 19 24 26 28 29 27 26 25 22 20 19 19 17 16 15 15 16 16 16 16 16 15 11 8 7 7 8 4 4 4 4 6 9 11 12 12 12 11 10 11 12 11 10 10 12 14 15 16 17 17 17
47 46 45 42 40 41 40 39 38 38 38 37 37 37 38 39 39 38 38 37 33 30 28 27 26 26 24 22 23 22 21 19 16 14 13 13 14 20 25 27 28 30 30 27 25 23 21 19 19 18 17 17 16 15 16 17 18 18 17 13 9 7 8 9 8 6 5 3 5 8 10 10 9 10 10 9 9 10 12 11 10 11 13 14 14 14 15 16
48 47 46 44 42 42 42 41 40 39 38 37 37 38 38 39 41 40 38 37 35 31 29 28 28 26 24 23 24 23 22 22 19 16 13 12 15 20 23 24 27 29 30 29 27 25 23 21 21 20 20 19 18 17 17 18 20 20 17 14 11 10 9 9 10 8 7 5 4 6 8 9 8 8 8 9 8 8 10 11 10 10 11 13 13 12 12 14
48 48 48 46 44 44 44 42 41 41 40 38 38 38 38 40 42 40 38 37 36 33 31 30 29 27 25 23 23 23 23 22 19 17 15 14 16 18 20 23 27 28 30 31 31 30 27 24 24 24 23 21 20 19 18 19 20 20 18 15 13 12 11 11 12 11 7 5 3 3 5 7 8 8 8 8 8 6 7 10 10 9 9 10 12 12 11 12
50 49 49 48 46 45 45 44 43 43 41 40 39 38 39 42 42 40 39 38 37 35 32 31 30 28 26 24 24 25 24 22 19 17 16 16 17 17 18 22 26 28 30 33 34 33 29 27 27 27 25 23 21 20 18 19 20 19 19 18 16 14 13 13 14 14 11 6 3 2 2 3 5 7 7 7 7 5 5 8 9 9 8 8 10 11 10 11
52 51 50 50 48 46 45 45 44 44 43 41 39 39 42 43 41 40 40 40 38 36 33 31 31 29 26 25 25 25 25 23 20 18 17 18 18 17 17 20 24 27 31 33 34 33 32 30 30 28 27 25 23 21 19 19 20 20 19 19 18 17 16 15 15 16 14 10 7 4 1 0 2 5 6 5 6 5 4 6 7 9 9 8 8 9 9 10
54 52 52 51 50 48 47 46 46 45 44 43 41 41 43 42 41 42 42 40 39 37 34 32 31 30 26 25 26 25 25 25 23 21 20 19 19 18 18 19 22 26 30 32 33 33 32 32 32 29 28 27 25 23 22 20 20 20 20 20 20 20 19 18 17 16 16 13 10 7 4 3 1 2 4 4 5 5 4 5 5 7 9 9 9 9 8 9
55 54 53 53 51 49 48 48 47 46 45 45 44 44 43 42 43 43 42 41 39 37 34 32 31 30 27 26 26 26 26 26 25 24 22 20 20 20 19 20 23 26 28 30 32 34 34 33 33 32 30 29 27 25 24 22 21 22 22 21 20 20 21 20 19 17 16 15 14 11 8 6 5 1 1 2 3 4 3 3 3 5 8 10 9 9 9 10
57 55 54 54 53 51 50 49 48 47 46 46 46 45 43 42 43 43 42 41 38 36 34 32 31 31 28 26 26 27 27 26 27 26 24 22 22 22 21 21 24 26 27 28 31 33 35 36 36 33 31 30 28 26 25 24 22 22 24 24 22 22 22 22 21 19 18 17 17 15 12 9 8 6 3 2 0 2 2 2 1 3 6 9 10 10 11 11
57 56 55 54 54 53 52 51 50 49 48 46 46 45 42 42 43 42 41 40 38 36 34 32 31 31 29 27 27 28 27 27 27 27 25 24 23 24 23 22 23 25 27 29 30 32 34 36 37 36 34 33 32 28 26 25 24 24 24 26 26 25 24 23 22 21 19 19 18 17 15 12 10 9 7 5 3 0 1 1 1 2 4 7 9 9 10 11
57 56 55 55 55 54 54 53 52 51 50 48 47 45 44 42 43 43 42 41 39 38 36 34 33 32 30 28 28 29 28 27 28 28 27 25 25 25 24 22 22 24 26 29 31 32 32 33 35 36 36 36 35 32 30 28 27 26 26 27 28 28 28 26 24 23 21 20 20 19 17 14 12 12 11 8 6 3 1 2 2 3 4 5 7 8 9 10
56 56 56 55 55 55 55 55 55 54 52 50 48 47 45 44 44 44 44 43 41 39 38 37 34 33 31 30 30 31 29 28 29 30 29 28 26 25 24 23 23 24 26 28 31 32 33 34 33 33 35 36 36 34 33 32 30 29 27 27 28 30 30 28 26 24 22 21 21 20 18 16 15 15 14 11 9 6 3 3 4 4 5 6 6 8 9 9
55 55 56 55 55 55 55 56 56 55 53 52 49 48 46 45 44 45 45 44 43 42 41 38 36 34 33 32 32 33 32 29 29 30 31 29 27 25 24 24 25 26 27 28 29 30 32 33 33 32 33 34 35 35 34 34 32 29 28 28 29 30 32 31 28 25 23 22 21 20 20 19 18 17 15 13 11 8 6 6 6 6 6 7 7 8 9 9
54 55 55 55 55 55 55 56 56 56 54 53 51 49 47 45 44 45 46 46 45 44 43 40 37 36 36 34 34 35 35 33 30 30 31 30 28 26 25 25 26 27 28 28 29 29 30 32 33 33 32 32 33 34 34 34 33 31 29 29 29 31 33 33 32 29 25 23 22 22 22 21 20 19 18 15 13 11 10 8 8 9 9 8 8 8 9 9
53 53 54 54 54 54 55 56 56 56 55 54 52 51 49 47 45 45 47 48 47 46 45 43 40 39 37 36 36 37 37 36 33 31 30 31 30 28 26 26 27 28 29 30 30 30 31 33 33 32 31 31 33 34 34 35 35 33 32 31 30 30 32 34 35 32 28 26 25 24 24 23 22 22 21 19 16 14 14 12 10 11 12 11 10 9 9 9
52 52 53 53 54 54 55 55 55 55 55 54 53 52 51 49 47 47 48 49 49 48 47 45 43 42 40 38 38 39 40 39 37 34 31 32 32 31 29 28 29 30 30 31 32 32 33 34 34 32 31 31 33 35 35 35 35 34 34 33 32 31 31 32 34 34 32 30 28 28 27 25 24 24 24 23 21 19 18 17 14 13 14 13 12 11 10 10
51 52 52 52 53 54 54 55 55 55 55 55 54 53 52 51 49 49 49 50 50 50 48 47 45 44 43 42 41 41 42 41 40 38 35 33 34 34 32 30 30 31 32 32 33 33 34 34 35 35 33 33 34 35 36 35 34 34 34 34 34 33 32 32 33 34 34 33 31 30 30 29 27 27 26 25 24 22 21 20 18 16 16 15 15 14 13 13
51 52 52 52 52 53 54 55 55 55 55 55 55 55 54 53 52 51 51 51 51 51 50 48 47 46 45 44 43 43 43 43 42 41 39 37 36 36 35 32 31 31 32 33 34 35 35 34 35 37 37 37 37 37 37 37 35 35 35 35 35 35 34 34 34 34 34 35 34 33 32 31 31 30 28 27 26 24 23 22 21 20 19 18 18 18 17 17
51 51 52 52 52 53 54 54 55 55 55 56 56 56 56 55 54 53 52 52 52 53 52 51 49 48 47 46 45 45 45 45 44 44 44 42 40 39 38 36 33 32 32 35 36 37 36 35 37 38 38 39 40 40 40 39 38 37 37 36 37 37 36 36 34 33 34 34 35 35 35 34 33 32 31 29 28 26 25 24 24 23 21 21 21 21 21 21
52 52 53 53 53 53 54 54 55 55 56 56 56 57 57 56 55 54 53 53 53 53 53 52 51 50 49 48 47 48 48 48 48 48 48 46 44 42 41 39 37 35 34 35 37 38 38 37 37 38 39 39 40 40 41 41 40 39 39 39 38 38 38 38 37 36 35 34 34 35 36 36 36 35 34 32 31 29 27 26 26 25 25 24 24 24 24 24
53 54 54 54 54 54 54 55 55 55 55 56 57 58 58 57 57 56 55 54 54 54 53 53 52 52 51 50 50 50 50 50 51 52 51 50 48 46 45 43 40 39 37 37 38 39 39 37 36 38 39 39 40 39 38 40 42 42 42 42 42 41 41 40 40 39 38 37 35 35 36 36 36 36 35 35 34 33 31 29 28 27 28 28 28 27 26 26
55 55 55 55 55 55 55 55 55 55 56 56 57 58 58 58 58 57 56 55 54 54 54 53 53 52 52 52 52 52 52 52 53 54 53 52 51 49 48 46 43 42 41 40 39 40 39 38 36 37 39 40 40 38 34 36 40 42 43 44 45 45 44 43 42 42 41 40 39 37 36 36 37 37 36 37 37 37 36 34 32 31 31 31 32 31 30 28
Wind_Direction
271 272 275 278 284 289 295 300 305 310 313 313 314 316 318 318 317 318 321 323 326 329 331 332 335 340 341 339 335 331 332 328 320 311 303 295 286 279 274 270 269 266 262 261 261 263 263 261 261 259 259 259 260 264 268 270 271 272 271 269 269 270 272 273 273 273 273 273 273 274 274 273 273 272 270 269 267 264 262 261 259 259 257 257 258 260 263 265
270 272 274 277 282 287 292 298 303 308 311 312 313 315 317 317 317 318 320 323 326 329 331 332 335 339 342 340 336 334 333 330 322 309 301 295 287 281 273 269 268 266 264 264 266 268 269 268 263 259 256 257 261 266 271 274 274 271 270 273 278 282 284 282 279 279 278 278 277 276 275 274 273 270 268 267 264 262 259 257 255 254 252 252 255 259 261 263
270 272 274 276 280 285 290 295 300 305 308 310 312 314 315 317 316 317 320 323 326 329 331 332 335 339 342 340 337 337 336 332 324 310 300 294 289 283 274 270 268 265 264 263 266 272 271 267 260 257 257 260 264 267 266 266 267 270 281 296 304 300 290 285 286 287 287 284 282 281 280 279 277 275 272 268 264 260 255 253 252 249 246 247 251 256 259 262
269 271 273 276 280 284 288 293 297 302 306 308 310 312 313 315 316 316 319 322 325 329 331 332 334 339 342 340 338 338 340 336 326 313 302 293 289 284 275 271 266 259 256 251 259 267 264 261 253 260 276 279 270 258 258 261 263 267 316 331 306 292 289 295 304 306 309 307 303 299 297 293 286 279 272 266 258 251 243 241 241 237 234 238 245 250 254 256
268 270 272 275 279 283 287 290 295 299 303 306 307 310 311 313 315 316 318 321 324 328 331 331 334 338 341 341 338 337 343 341 328 318 308 300 291 281 271 266 257 241 222 187 186 212 229 217 151 126 149 180 123 98 0 326 309 161 135 74 18 359 357 2 1 0 4 2 351 335 315 304 288 262 248 238 229 223 217 216 219 216 213 219 225 227 229 230
267 269 271 274 278 281 285 289 293 297 301 304 305 307 309 311 313 315 318 320 323 328 330 331 333 337 341 342 338 337 345 346 335 321 311 307 296 282 273 256 237 193 138 139 164 181 184 160 128 109 100 99 99 90 69 51 22 99 90 78 65 56 51 45 41 36 35 33 28 24 17 9 89 176 183 184 178 166 151 150 155 155 161 176 193 199 200 198
266 268 270 273 276 280 284 287 292 296 299 302 303 305 306 309 311 314 316 318 322 326 329 330 332 337 341 342 339 338 347 349 340 326 317 311 300 305 291 246 156 105 112 122 137 130 116 106 96 90 98 112 115 108 94 85 105 98 90 89 83 72 66 61 57 51 48 45 39 40 50 74 103 128 138 136 127 120 118 121 126 134 146 160 169 165 156 150
266 268 269 271 274 278 282 286 290 294 297 299 301 302 304 306 309 312 314 316 320 324 327 329 331 335 340 343 340 338 347 351 340 331 329 315 314 359 315 150 91 100 122 124 122 110 101 96 97 115 145 142 122 112 107 108 112 99 91 92 88 75 66 62 58 54 49 45 41 42 48 66 93 100 101 105 110 114 117 122 131 137 143 148 143 127 114 110
264 266 268 270 273 276 280 283 287 291 294 297 298 300 301 303 306 309 312 314 318 322 325 328 329 334 339 342 341 337 345 352 339 333 333 321 352 30 12 98 99 117 124 119 116 108 106 112 126 142 136 119 103 98 104 105 100 92 87 82 74 64 58 54 51 49 44 36 29 28 38 46 77 94 94 98 107 114 121 130 135 135 137 136 121 104 90 66
262 264 266 268 271 273 277 280 284 288 292 294 296 297 299 300 303 306 309 312 315 319 323 327 328 331 337 342 342 336 342 352 340 333 335 330 15 42 60 110 119 123 114 113 115 117 125 133 146 144 119 111 120 113 110 104 93 84 78 67 55 48 46 45 43 45 45 40 21 357 7 36 63 100 108 112 117 118 125 134 135 132 131 122 105 90 79 63
260 262 264 266 269 271 274 277 281 285 289 292 294 295 296 297 300 303 306 309 313 316 321 326 327 329 335 341 342 337 339 351 341 333 338 338 20 58 128 132 129 121 117 123 126 130 140 140 141 135 117 117 135 124 115 100 89 79 71 62 52 44 41 41 38 40 45 47 34 357 330 354 24 93 126 134 135 131 136 144 138 130 126 117 108 109 126 141
261 260 262 264 266 269 272 275 278 282 286 289 291 293 293 294 297 299 302 306 310 313 319 324 326 327 333 339 342 338 338 348 340 335 340 339 18 111 152 133 123 117 119 128 134 141 142 130 121 117 112 111 118 118 108 93 87 82 75 69 61 52 46 42 37 36 39 45 42 21 8 19 2 330 214 179 166 153 156 163 143 125 126 127 128 135 140 132
265 262 260 262 264 267 269 272 275 279 283 287 289 290 290 291 293 296 299 304 308 311 316 323 325 325 330 337 342 340 338 344 337 338 341 337 347 196 146 121 117 112 115 127 138 142 130 122 118 115 109 107 107 106 102 98 92 84 78 74 68 65 61 56 50 44 40 43 43 32 38 48 46 32 81 160 162 155 153 150 133 121 123 126 128 135 134 125
268 266 262 260 262 264 267 270 273 276 281 285 286 287 287 287 290 292 296 303 306 308 314 320 323 324 326 333 340 340 338 340 332 336 338 322 202 210 143 126 127 113 110 130 134 132 126 124 124 119 112 105 103 104 107 106 98 87 82 77 70 69 70 69 67 63 56 52 47 38 60 58 54 65 75 88 101 118 124 122 120 116 118 123 127 130 129 125
269 268 265 262 260 262 264 267 270 274 278 282 283 283 283 284 286 288 294 301 305 307 311 317 322 323 323 329 338 339 338 335 325 333 340 223 202 213 153 137 137 124 132 150 137 133 128 127 128 124 116 108 108 115 119 113 105 98 91 84 76 70 70 73 75 74 72 69 64 64 99 105 90 83 74 76 89 100 104 101 102 109 117 124 126 125 123 123
268 269 268 264 261 260 262 264 267 271 275 278 279 279 279 280 283 286 292 300 303 304 308 314 319 321 321 325 334 338 337 334 325 328 55 179 209 215 165 145 141 139 153 157 144 137 132 133 135 130 119 112 116 124 127 120 115 110 102 95 87 77 72 74 76 76 76 77 78 77 88 109 110 103 90 86 99 97 90 86 94 109 117 122 122 119 120 122
266 268 268 266 263 260 261 262 265 269 272 274 274 274 275 277 280 283 290 297 301 301 304 311 317 319 319 321 328 336 336 333 327 319 184 170 209 213 169 152 154 155 163 162 151 141 138 140 141 136 123 117 124 130 132 128 120 113 105 99 91 84 79 77 76 75 75 76 82 84 88 104 112 112 108 101 105 101 93 94 103 111 115 117 117 116 119 120
265 267 268 267 263 260 260 261 263 266 268 269 269 270 272 274 277 281 288 294 298 298 300 308 314 316 316 316 322 333 336 330 326 312 214 167 180 203 177 168 175 170 171 169 156 146 143 143 142 138 127 122 131 137 137 129 116 105 97 91 85 83 81 79 78 75 74 74 79 86 88 96 103 106 107 110 110 106 103 101 103 107 110 112 113 115 119 117
264 266 267 267 264 260 258 259 260 262 263 264 265 267 269 271 274 280 286 291 294 293 297 304 310 313 312 312 318 329 335 326 317 304 239 185 160 188 190 185 190 182 176 172 162 151 140 139 142 141 135 131 138 145 140 126 110 99 92 88 83 81 79 77 77 74 72 71 75 82 88 91 95 99 101 107 109 109 107 101 97 100 105 110 113 115 118 116
263 264 266 266 264 260 257 256 257 258 259 259 261 263 265 268 272 278 283 287 289 290 294 301 306 310 308 307 313 322 331 323 303 285 254 221 172 173 185 190 197 188 179 179 174 156 134 131 138 145 151 147 146 147 141 132 119 107 100 97 93 87 82 78 77 74 69 67 70 78 87 89 91 94 98 103 105 108 106 96 89 95 104 111 114 117 118 117
261 263 264 264 262 258 255 253 252 253 254 255 257 260 263 266 270 275 279 282 285 287 292 298 303 307 305 303 308 315 325 322 298 249 246 239 191 170 179 196 200 188 188 198 193 161 135 134 140 146 175 174 155 148 145 142 131 119 111 107 102 94 88 82 80 77 72 67 68 76 84 88 87 87 92 98 102 104 100 92 91 99 108 112 115 118 119 119
260 261 262 262 261 256 253 250 248 249 250 252 255 257 260 263 268 271 274 277 282 285 289 294 298 302 301 299 301 306 318 321 300 250 221 230 207 180 184 206 208 196 200 205 192 164 143 149 153 151 173 182 161 153 150 146 136 131 123 118 114 103 94 88 84 81 75 68 67 73 81 86 87 85 87 94 100 101 97 94 99 106 113 115 116 119 120 120
258 259 260 261 259 254 250 247 245 245 248 250 252 255 257 260 264 267 270 274 279 283 285 288 294 297 297 295 294 298 309 316 300 263 220 218 213 195 192 208 214 208 208 200 188 175 159 159 156 152 158 165 168 167 160 146 137 142 141 134 129 113 99 92 88 85 78 70 66 70 76 81 86 88 90 96 101 103 101 102 107 111 115 117 117 120 121 119
255 257 258 259 257 253 248 244 242 243 245 248 250 253 255 258 261 263 266 271 276 280 280 284 290 290 291 292 289 288 296 308 301 269 229 212 214 207 200 207 215 214 214 206 194 184 170 159 151 149 149 158 174 182 178 157 148 163 162 144 129 113 100 92 88 87 82 74 69 69 73 76 82 88 93 100 104 105 106 108 112 114 115 117 119 122 123 121
253 254 255 256 255 249 245 242 241 241 244 246 248 251 253 255 256 258 262 268 273 275 276 281 283 283 289 290 282 280 287 300 303 275 239 216 214 214 206 207 217 217 217 213 198 184 174 164 155 158 155 156 179 196 195 179 175 183 172 145 126 106 94 90 87 84 82 79 75 73 72 72 75 84 94 102 106 107 109 111 115 116 116 118 121 124 125 123
251 252 253 253 252 246 242 241 239 240 242 245 246 249 251 252 252 256 260 265 269 271 273 277 277 280 286 282 274 278 285 293 295 279 249 222 212 215 210 207 216 219 218 215 202 188 183 179 171 171 168 164 186 199 195 191 196 197 181 157 128 91 74 90 87 83 81 80 81 79 75 72 72 78 91 103 109 110 111 111 115 118 118 118 120 124 126 125
248 249 250 251 250 244 240 239 238 238 241 243 245 247 249 249 250 254 259 261 265 268 271 273 273 278 282 277 274 278 282 285 290 288 268 234 216 214 212 209 214 219 217 214 209 200 195 194 185 179 176 174 188 193 189 196 205 205 198 180 142 107 103 132 98 84 79 73 77 80 76 74 74 75 84 98 110 115 115 114 114 117 119 119 120 123 126 126
246 247 248 249 247 242 238 237 237 237 239 242 243 244 246 247 248 252 257 259 262 265 268 269 271 277 279 277 275 274 275 280 292 300 282 245 223 215 213 212 214 219 217 211 210 209 205 204 198 193 187 179 187 191 190 197 207 209 210 204 185 184 270 146 114 91 82 77 75 77 75 73 75 77 82 91 106 119 123 120 117 117 119 120 120 122 126 127
244 245 246 246 245 241 237 236 236 236 238 241 242 242 243 245 245 249 255 258 259 262 264 265 269 273 272 272 266 261 269 276 287 291 271 247 231 217 214 217 218 219 216 208 207 209 210 209 208 206 198 186 188 193 193 198 210 220 222 218 216 241 303 313 143 116 102 97 86 81 76 72 72 75 81 89 100 115 128 128 123 121 122 122 121 123 126 129
242 243 244 243 242 239 236 236 236 236 237 239 241 241 241 244 244 246 252 255 256 259 260 261 264 265 264 263 255 249 258 266 269 271 267 257 241 221 214 218 222 223 219 209 205 211 213 212 211 211 209 200 194 195 198 202 213 228 232 229 228 250 295 300 208 155 134 112 97 89 81 71 66 66 74 87 98 108 122 131 132 129 127 126 125 127 129 133
241 242 242 240 238 237 235 235 236 235 236 237 240 241 241 244 245 245 249 253 254 255 256 256 257 260 262 258 249 243 243 244 247 256 264 265 248 226 217 217 222 227 227 216 210 213 217 217 216 216 218 217 207 200 204 210 217 229 236 237 235 247 277 289 267 207 172 123 104 96 84 73 65 62 66 80 97 106 111 121 131 134 133 130 129 131 134 138
240 240 240 238 236 235 234 233 233 235 235 236 238 241 242 243 245 244 247 251 252 251 252 252 253 257 260 256 250 246 242 239 238 243 257 267 252 234 226 221 220 223 228 224 217 216 220 224 225 224 225 226 220 213 212 216 220 227 235 238 237 244 265 281 278 254 223 177 116 98 85 76 70 67 68 71 88 104 107 111 123 133 136 134 132 136 141 145
238 238 238 237 235 234 233 231 230 233 234 234 236 239 241 242 244 245 246 250 251 249 248 248 250 254 256 254 251 249 246 244 243 241 247 258 253 245 240 232 224 222 225 225 222 221 223 228 231 231 229 227 225 223 221 221 224 228 232 235 237 243 256 268 272 265 234 189 127 102 92 81 73 69 69 69 72 95 109 110 116 129 139 140 137 140 149 154
236 236 236 236 234 233 233 230 229 231 232 233 235 236 237 239 242 245 246 247 249 247 245 245 247 250 253 253 249 245 244 246 247 245 243 247 250 251 247 238 230 225 225 225 225 225 226 228 230 232 233 230 228 228 227 226 228 232 234 234 237 243 249 254 260 266 245 186 134 92 85 80 73 64 63 68 64 76 109 113 115 123 137 146 144 145 156 167
234 234 234 234 233 232 232 230 228 229 231 232 234 235 236 238 241 244 244 245 247 245 243 243 245 248 251 249 245 242 241 240 242 244 245 245 245 248 246 238 232 228 226 226 227 227 228 229 230 233 234 234 233 233 234 233 233 238 240 238 236 241 247 249 255 265 263 239 243 291 48 66 69 63 53 64 67 64 99 114 119 122 131 150 151 150 160 175
232 232 233 233 232 231 231 230 228 228 229 231 233 235 237 239 240 242 243 244 245 244 242 241 243 247 249 248 246 244 241 238 235 238 242 245 246 249 248 242 235 231 229 229 230 230 231 232 233 234 234 234 235 236 236 236 235 239 242 241 237 238 243 250 254 261 266 264 266 273 284 351 72 66 48 51 66 64 81 108 124 131 132 146 156 158 164 177
230 230 231 231 231 231 230 230 228 227 228 229 231 233 236 238 239 240 241 242 243 242 241 240 242 246 248 247 246 244 241 238 234 233 234 238 244 247 248 246 239 235 233 233 233 233 234 236 237 236 235 234 236 238 239 239 238 238 240 241 240 239 242 248 253 258 265 267 265 260 250 252 255 81 61 47 55 57 68 90 123 147 145 147 159 166 173 183
229 228 229 230 230 230 230 230 228 227 227 228 230 232 234 236 239 240 241 241 241 240 240 239 242 246 247 245 244 243 241 238 235 234 233 233 238 240 242 243 242 240 238 236 235 235 236 237 239 239 240 239 238 239 240 242 242 240 240 241 241 241 242 245 249 254 261 265 264 262 256 260 270 265 95 74 63 56 58 79 112 165 163 157 161 169 179 189
228 227 227 228 229 229 230 229 229 228 227 228 230 231 232 235 238 240 241 241 241 240 239 239 240 244 245 244 243 242 241 239 237 235 233 232 235 237 237 237 239 240 239 238 237 238 238 238 240 241 243 245 244 241 240 241 242 242 243 243 242 241 242 244 248 251 255 260 264 266 266 269 275 270 256 243 134 67 50 56 103 188 182 171 170 175 183 192
226 226 226 227 228 228 229 229 229 229 228 228 229 230 231 233 236 237 238 239 238 238 237 236 238 241 242 241 240 240 240 239 238 236 235 234 235 237 238 237 238 238 238 238 238 239 240 241 241 242 243 246 248 247 244 242 240 240 242 243 243 243 243 245 248 250 252 254 258 263 268 272 272 269 267 271 272 249 51 354 334 262 212 188 180 182 187 196
225 225 225 226 227 227 228 229 229 229 229 228 228 228 228 231 233 233 234 234 233 233 233 232 233 237 239 238 237 238 238 237 238 237 235 234 234 236 239 240 241 241 239 239 239 239 241 242 242 242 243 246 248 250 248 245 241 239 239 242 244 245 245 246 248 251 251 252 254 258 263 264 262 263 266 270 269 266 290 305 302 293 263 222 197 191 191 198
224 224 225 226 226 226 227 228 229 229 230 229 228 227 227 228 230 230 230 230 230 230 230 230 231 233 235 235 235 236 237 236 237 237 235 234 235 235 238 242 244 243 240 239 239 239 241 243 244 244 244 245 247 248 248 245 243 242 243 244 246 247 247 247 248 252 253 253 253 255 256 255 253 258 263 262 257 259 283 291 285 284 270 247 224 209 201 199
224 224 224 225 226 226 226 228 229 229 230 229 228 227 227 227 229 229 228 229 228 228 229 229 229 231 232 232 232 234 236 236 235 237 237 236 236 235 237 242 245 245 244 241 240 239 241 243 245 245 245 245 244 245 245 245 245 246 247 247 248 248 248 246 246 248 250 252 253 252 251 249 248 252 258 260 257 256 260 269 278 280 271 254 239 230 222 213
223 224 224 225 226 226 226 227 228 229 229 229 228 227 226 227 229 229 228 228 228 228 229 228 227 228 230 230 229 231 234 236 235 235 236 236 236 235 235 240 244 246 246 245 241 238 238 240 242 243 245 244 242 241 242 244 245 245 245 245 245 246 246 245 244 245 246 248 249 249 248 247 246 247 249 253 256 257 250 248 259 272 275 264 245 239 242 236
223 224 224 224 225 225 226 226 227 228 228 228 228 227 225 225 228 228 228 228 229 229 229 228 226 227 229 229 229 229 232 235 235 234 234 234 235 236 236 239 241 243 245 245 243 238 235 237 239 239 241 240 239 238 238 240 242 242 242 242 243 245 245 244 244 245 246 245 246 247 248 248 248 249 249 249 250 251 252 252 255 263 271 271 257 243 246 254
223 224 224 224 224 224 226 226 227 227 227 228 228 227 225 224 226 228 227 228 229 230 230 230 228 229 229 228 228 229 231 234 236 235 234 234 235 236 237 238 240 240 241 244 246 241 237 238 239 238 238 237 237 238 238 239 241 241 242 241 243 244 245 244 244 244 246 247 247 248 248 249 250 251 252 253 252 252 256 260 261 260 265 270 266 255 249 255
222 224 224 224 224 224 225 226 226 227 227 227 227 227 225 224 226 228 228 228 229 229 230 230 230 231 231 230 229 229 230 233 235 236 235 235 236 236 236 238 241 241 240 242 245 244 241 239 239 239 239 238 238 239 240 240 240 240 241 240 241 243 244 244 243 242 243 245 247 248 249 250 250 252 253 256 257 257 258 260 261 261 263 266 267 263 257 255
223 224 224 225 225 224 224 225 226 226 226 226 226 226 225 224 225 228 229 229 229 230 229 229 230 232 233 233 232 231 231 232 234 235 236 237 238 237 236 237 239 241 240 241 242 244 243 240 238 238 239 239 239 240 241 242 241 240 241 241 241 241 242 243 243 243 243 244 245 247 249 250 250 252 253 254 255 256 257 258 260 261 261 262 263 263 261 260
223 224 224 225 225 225 225 225 225 225 226 226 226 226 225 225 224 226 229 230 231 231 230 229 229 231 232 233 234 234 234 233 233 234 236 238 239 237 235 236 238 240 240 240 241 242 243 240 237 237 237 238 239 239 241 243 244 243 243 243 243 242 242 243 243 244 245 245 246 247 248 248 249 250 250 251 252 253 254 256 258 259 259 259 259 261 262 263
222 223 224 224 225 225 225 225 225 224 225 225 226 226 226 225 225 226 228 231 232 232 233 231 229 229 231 232 233 234 235 235 234 234 235 237 238 236 234 235 237 239 239 240 240 242 243 242 240 239 237 237 239 240 241 242 245 246 246 246 246 246 246 247 245 243 243 244 245 246 247 247 247 247 248 248 248 248 249 252 256 259 260 258 258 258 260 262
222 223 224 224 225 226 226 226 226 225 225 225 226 226 226 226 226 226 227 230 233 234 235 234 232 230 230 231 232 233 234 235 235 235 235 235 235 234 232 232 235 237 238 238 238 240 243 244 244 243 240 238 238 240 243 244 244 245 248 249 249 250 250 251 251 248 246 244 244 244 245 245 245 245 245 245 246 246 246 247 251 256 259 260 260 259 258 260
222 223 224 224 225 226 227 227 227 226 226 226 226 227 227 227 227 227 227 229 233 235 236 237 236 233 231 231 231 232 233 234 235 235 235 234 233 232 229 229 233 236 237 237 236 236 240 243 244 244 242 239 237 237 240 244 244 243 245 246 248 249 251 252 252 252 250 248 245 243 243 243 244 244 244 243 244 245 245 245 247 249 253 256 258 260 260 259
Height
10740 10739 10739 10738 10737 10736 10735 10733 10732 10731 10728 10726 10724 10722 10720 10718 10715 10713 10710 10707 10704 10701 10698 10695 10692 10688 10684 10680 10676 10672 10670 10668 10666 10665 10664 10663 10662 10661 10661 10660 10660 10660 10660 10659 10659 10659 10660 10660 10661 10661 10662 10662 10662 10662 10663 10663 10664 10665 10665 10666 10666 10666 10666 10666 10666 10666 10666 10666 10666 10666 10666 10666 10666 10666 10666 10667 10667 10667 10668 10669 10669 10670 10671 10670 10670 10670 10672 10674
10737 10736 10736 10735 10734 10733 10732 10731 10730 10728 10726 10724 10722 10720 10718 10716 10713 10711 10709 10706 10703 10700 10697 10694 10691 10687 10683 10679 10675 10672 10669 10667 10666 10664 10663 10662 10661 10661 10660 10660 10660 10660 10660 10659 10659 10659 10659 10659 10660 10661 10661 10661 10661 10662 10662 10663 10664 10664 10664 10664 10664 10664 10664 10664 10664 10664 10664 10665 10665 10664 10664 10663 10663 10662 10662 10663 10663 10663 10664 10664 10664 10666 10667 10667 10667 10668 10670 10671
10734 10733 10733 10732 10731 10730 10729 10728 10727 10726 10724 10722 10720 10718 10716 10714 10711 10709 10707 10704 10702 10698 10695 10692 10690 10686 10683 10679 10675 10672 10669 10667 10665 10664 10663 10662 10661 10660 10660 10660 10659 10659 10659 10659 10659 10659 10659 10659 10660 10660 10661 10661 10662 10662 10663 10663 10664 10663 10663 10663 10664 10664 10664 10663 10663 10663 10663 10663 10662 10662 10661 10660 10659 10659 10659 10659 10659 10659 10660 10661 10662 10663 10664 10664 10665 10666 10667 10668
10730 10730 10730 10729 10728 10728 10727 10726 10724 10723 10722 10719 10717 10715 10713 10712 10709 10708 10706 10703 10700 10697 10694 10691 10689 10686 10682 10678 10675 10672 10669 10667 10665 10663 10662 10662 10661 10660 10660 10659 10659 10659 10659 10659 10658 10658 10659 10660 10660 10661 10661 10661 10662 10663 10663 10664 10664 10664 10664 10664 10664 10664 10663 10662 10662 10662 10662 10661 10660 10660 10659 10658 10657 10656 10656 10656 10657 10657 10658 10659 10660 10661 10662 10663 10664 10665 10665 10666
10727 10727 10726 10726 10725 10725 10724 10723 10722 10721 10719 10717 10715 10713 10711 10710 10708 10706 10704 10702 10699 10696 10693 10690 10688 10685 10681 10678 10674 10672 10669 10667 10665 10663 10662 10662 10661 10660 10659 10659 10659 10658 10658 10658 10658 10658 10659 10660 10660 10660 10661 10662 10662 10663 10663 10664 10664 10664 10664 10664 10663 10662 10661 10661 10661 10661 10661 10660 10659 10659 10658 10657 10656 10656 10656 10656 10656 10656 10657 10658 10659 10660 10661 10662 10663 10664 10665 10666
10723 10723 10723 10723 10722 10722 10721 10720 10719 10718 10717 10715 10713 10711 10709 10708 10706 10704 10703 10700 10698 10695 10692 10690 10687 10684 10681 10677 10674 10671 10669 10667 10666 10664 10662 10661 10661 10660 10660 10659 10659 10658 10658 10658 10658 10659 10659 10659 10659 10660 10661 10662 10663 10663 10664 10664 10664 10664 10663 10662 10662 10661 10661 10661 10660 10661 10661 10661 10660 10659 10658 10657 10656 10656 10656 10655 10655 10656 10656 10658 10659 10660 10661 10662 10663 10664 10665 10665
10719 10719 10719 10719 10719 10718 10718 10717 10716 10716 10714 10713 10711 10709 10707 10706 10704 10703 10701 10699 10697 10694 10691 10689 10686 10684 10681 10677 10673 10671 10669 10667 10666 10664 10663 10661 10661 10661 10660 10660 10659 10659 10659 10659 10659 10660 10660 10659 10660 10661 10663 10664 10664 10664 10664 10665 10665 10664 10663 10663 10662 10662 10661 10661 10660 10661 10661 10661 10661 10660 10659 10658 10657 10656 10656 10655 10655 10656 10656 10658 10659 10660 10662 10662 10663 10663 10663 10663
10714 10715 10715 10715 10715 10715 10714 10714 10714 10713 10712 10710 10708 10706 10705 10704 10702 10701 10699 10697 10695 10693 10690 10688 10686 10683 10680 10677 10674 10671 10669 10667 10666 10665 10663 10662 10661 10662 10661 10660 10659 10660 10660 10660 10661 10661 10661 10661 10662 10663 10665 10665 10665 10665 10665 10665 10665 10664 10663 10663 10663 10662 10662 10661 10661 10661 10661 10661 10662 10661 10660 10659 10658 10657 10656 10656 10656 10657 10657 10658 10660 10661 10662 10662 10662 10662 10662 10662
10710 10711 10711 10711 10711 10711 10711 10711 10711 10710 10709 10708 10706 10704 10702 10701 10700 10699 10697 10696 10694 10692 10689 10687 10685 10682 10680 10677 10674 10671 10669 10667 10666 10665 10663 10662 10662 10662 10662 10661 10660 10660 10661 10661 10661 10661 10662 10663 10664 10664 10665 10666 10666 10666 10666 10665 10665 10664 10664 10663 10663 10663 10663 10662 10661 10661 10661 10661 10662 10662 10662 10661 10659 10658 10657 10658 10659 10659 10659 10660 10661 10661 10662 10662 10662 10661 10661 10661
10705 10706 10707 10707 10707 10707 10708 10708 10708 10707 10707 10706 10704 10702 10700 10699 10698 10697 10696 10694 10692 10690 10688 10686 10684 10682 10680 10677 10674 10671 10669 10667 10666 10665 10664 10663 10663 10663 10663 10662 10661 10661 10661 10662 10662 10662 10663 10663 10664 10665 10665 10666 10666 10666 10666 10666 10665 10664 10664 10664 10664 10664 10663 10663 10662 10661 10661 10661 10662 10662 10662 10662 10661 10660 10659 10660 10660 10660 10661 10661 10661 10661 10661 10661 10661 10661 10661 10661
10700 10701 10702 10703 10703 10704 10704 10704 10704 10704 10704 10703 10701 10699 10697 10696 10696 10695 10694 10692 10691 10689 10687 10685 10683 10681 10679 10677 10674 10671 10669 10667 10666 10665 10665 10663 10663 10664 10664 10663 10662 10662 10662 10663 10663 10663 10663 10664 10665 10665 10665 10666 10667 10667 10667 10666 10665 10665 10665 10664 10664 10664 10664 10663 10662 10662 10661 10660 10661 10662 10662 10662 10662 10662 10661 10661 10660 10660 10661 10661 10661 10660 10660 10660 10660 10660 10661 10661
10695 10696 10697 10698 10699 10699 10700 10700 10701 10701 10701 10701 10699 10696 10695 10694 10694 10693 10691 10690 10689 10687 10686 10684 10682 10680 10678 10676 10673 10671 10669 10667 10666 10666 10665 10664 10664 10664 10665 10664 10663 10663 10664 10665 10664 10665 10665 10665 10666 10666 10665 10666 10667 10668 10668 10667 10666 10666 10666 10665 10665 10665 10664 10663 10663 10662 10661 10660 10661 10662 10663 10662 10662 10662 10662 10662 10661 10660 10660 10661 10660 10660 10660 10660 10660 10661 10661 10661
10690 10691 10692 10693 10694 10695 10696 10697 10697 10698 10699 10698 10696 10693 10692 10691 10691 10690 10689 10689 10688 10686 10684 10683 10681 10679 10677 10676 10673 10671 10669 10667 10666 10665 10665 10665 10665 10666 10665 10665 10665 10665 10666 10667 10667 10667 10667 10667 10667 10667 10666 10666 10668 10669 10669 10668 10668 10667 10667 10667 10666 10666 10665 10664 10663 10663 10662 10662 10662 10663 10663 10663 10663 10663 10662 10662 10661 10661 10660 10660 10660 10660 10660 10660 10661 10661 10662 10662
10685 10686 10687 10688 10689 10690 10692 10693 10694 10695 10696 10695 10692 10691 10689 10689 10688 10688 10687 10687 10686 10684 10683 10682 10680 10678 10676 10675 10673 10671 10669 10667 10665 10665 10665 10666 10666 10667 10666 10665 10666 10667 10668 10668 10668 10669 10668 10668 10668 10668 10667 10667 10669 10670 10670 10670 10669 10669 10669 10669 10668 10667 10666 10665 10664 10664 10664 10663 10663 10663 10663 10663 10663 10663 10663 10663 10662 10661 10661 10660 10660 10660 10660 10661 10661 10662 10662 10662
10681 10681 10682 10683 10684 10685 10687 10688 10690 10692 10693 10691 10689 10687 10686 10686 10685 10685 10685 10685 10684 10683 10681 10680 10679 10678 10676 10675 10673 10671 10669 10667 10666 10665 10666 10666 10667 10667 10666 10666 10667 10668 10669 10669 10670 10670 10670 10669 10669 10669 10668 10667 10669 10671 10671 10670 10670 10670 10670 10670 10670 10670 10668 10667 10666 10665 10664 10664 10664 10664 10663 10663 10664 10664 10664 10663 10663 10662 10661 10661 10661 10661 10661 10661 10662 10662 10663 10663
10676 10677 10677 10678 10679 10681 10682 10684 10686 10688 10689 10687 10685 10684 10683 10682 10682 10682 10683 10683 10683 10681 10680 10679 10678 10677 10675 10674 10673 10671 10669 10667 10666 10665 10666 10667 10667 10668 10667 10667 10667 10668 10669 10670 10670 10671 10671 10671 10670 10671 10670 10669 10670 10671 10671 10671 10671 10671 10671 10671 10671 10671 10670 10668 10667 10666 10665 10665 10665 10665 10664 10664 10664 10664 10664 10664 10664 10663 10663 10662 10662 10662 10662 10662 10662 10663 10663 10664
10671 10672 10673 10673 10674 10676 10678 10680 10683 10685 10685 10683 10681 10680 10679 10679 10679 10680 10681 10681 10681 10679 10678 10677 10676 10675 10674 10673 10672 10671 10669 10667 10666 10665 10666 10666 10667 10668 10668 10668 10668 10668 10669 10670 10671 10672 10672 10672 10672 10672 10671 10670 10671 10672 10672 10672 10672 10672 10672 10672 10672 10672 10671 10670 10669 10668 10667 10667 10666 10666 10666 10665 10665 10665 10665 10665 10665 10664 10664 10664 10664 10664 10664 10663 10664 10664 10664 10665
10666 10667 10668 10669 10670 10671 10673 10675 10678 10680 10680 10679 10677 10676 10676 10676 10676 10678 10679 10679 10679 10677 10676 10676 10675 10674 10673 10672 10671 10670 10669 10667 10666 10666 10665 10665 10666 10668 10669 10668 10668 10668 10669 10671 10672 10672 10673 10673 10673 10672 10672 10672 10672 10673 10674 10675 10674 10674 10674 10673 10673 10673 10672 10671 10670 10670 10669 10668 10668 10667 10667 10666 10666 10665 10666 10666 10666 10666 10666 10666 10666 10666 10665 10665 10665 10665 10666 10666
10662 10663 10663 10664 10665 10666 10668 10671 10674 10675 10675 10675 10673 10672 10672 10672 10673 10675 10677 10677 10677 10675 10674 10674 10673 10673 10672 10671 10670 10670 10669 10667 10666 10666 10666 10665 10665 10668 10669 10669 10669 10669 10670 10672 10673 10673 10674 10675 10674 10674 10673 10673 10674 10675 10676 10676 10676 10676 10675 10675 10675 10674 10673 10673 10672 10672 10671 10670 10669 10668 10668 10668 10667 10666 10667 10667 10667 10667 10668 10668 10668 10668 10667 10667 10666 10667 10668 10668
10657 10658 10659 10660 10661 10662 10663 10666 10669 10671 10670 10670 10669 10668 10668 10669 10670 10673 10674 10674 10674 10673 10673 10673 10672 10671 10670 10669 10669 10669 10668 10667 10665 10665 10666 10665 10664 10666 10668 10668 10669 10670 10672 10673 10674 10674 10675 10676 10676 10676 10675 10674 10675 10676 10677 10677 10678 10677 10677 10676 10676 10676 10675 10674 10674 10673 10673 10672 10671 10670 10669 10669 10668 10668 10668 10669 10669 10669 10669 10669 10669 10670 10670 10669 10669 10669 10670 10671
10653 10654 10654 10655 10656 10657 10659 10662 10665 10666 10666 10665 10665 10664 10665 10665 10668 10671 10671 10671 10671 10671 10671 10671 10670 10669 10669 10668 10668 10668 10667 10666 10665 10664 10665 10666 10665 10666 10667 10668 10669 10671 10673 10674 10674 10674 10675 10676 10677 10677 10677 10677 10677 10677 10677 10678 10678 10678 10678 10678 10678 10677 10677 10676 10675 10675 10675 10674 10673 10672 10671 10670 10670 10670 10670 10670 10670 10671 10671 10670 10671 10672 10672 10672 10672 10672 10673 10673
10648 10649 10649 10650 10652 10653 10655 10657 10660 10661 10661 10661 10661 10660 10661 10663 10665 10668 10668 10667 10668 10669 10669 10669 10668 10667 10667 10667 10667 10667 10666 10665 10664 10664 10664 10666 10666 10666 10667 10667 10669 10672 10674 10675 10675 10675 10675 10676 10677 10678 10679 10679 10679 10679 10679 10679 10679 10680 10680 10680 10679 10679 10678 10678 10677 10677 10677 10676 10675 10674 10673 10672 10672 10672 10672 10672 10672 10672 10673 10673 10673 10674 10675 10675 10675 10675 10676 10676
10643 10644 10644 10645 10647 10649 10650 10653 10655 10657 10656 10656 10657 10656 10657 10660 10662 10664 10664 10664 10666 10667 10667 10667 10667 10666 10665 10666 10666 10666 10665 10664 10663 10663 10664 10665 10666 10667 10667 10668 10669 10672 10674 10675 10675 10675 10675 10676 10678 10679 10680 10680 10681 10681 10680 10680 10680 10680 10680 10680 10681 10680 10680 10680 10679 10679 10678 10678 10677 10676 10675 10674 10674 10674 10674 10674 10675 10675 10675 10675 10676 10676 10677 10677 10678 10678 10678 10679
10638 10639 10639 10641 10643 10645 10646 10648 10651 10652 10652 10652 10653 10653 10654 10657 10660 10661 10660 10661 10663 10664 10664 10665 10665 10664 10663 10664 10664 10664 10665 10664 10663 10663 10663 10664 10666 10667 10667 10668 10669 10671 10673 10675 10675 10675 10675 10677 10678 10679 10680 10681 10681 10682 10682 10682 10681 10680 10681 10681 10681 10681 10681 10681 10681 10680 10679 10679 10679 10678 10677 10676 10676 10676 10676 10676 10677 10677 10677 10677 10678 10678 10679 10680 10680 10681 10681 10681
10633 10633 10634 10636 10639 10640 10642 10644 10646 10647 10647 10648 10649 10649 10650 10654 10656 10656 10656 10658 10660 10661 10661 10663 10663 10662 10662 10663 10662 10662 10663 10664 10663 10663 10662 10663 10664 10666 10666 10667 10669 10671 10673 10674 10674 10674 10675 10677 10678 10679 10680 10681 10682 10682 10683 10682 10681 10681 10681 10682 10681 10681 10682 10682 10682 10681 10681 10680 10680 10680 10679 10678 10678 10678 10678 10678 10678 10679 10679 10679 10680 10680 10680 10681 10682 10683 10684 10684
10627 10628 10629 10631 10634 10636 10637 10639 10641 10642 10643 10643 10645 10646 10647 10651 10652 10652 10653 10655 10657 10657 10659 10661 10661 10660 10661 10661 10660 10660 10662 10663 10662 10662 10662 10662 10663 10664 10665 10666 10668 10670 10672 10673 10674 10674 10675 10676 10677 10678 10680 10681 10682 10683 10683 10682 10681 10681 10682 10682 10682 10682 10683 10683 10683 10682 10682 10682 10681 10681 10680 10679 10680 10679 10679 10679 10680 10680 10681 10681 10682 10682 10682 10683 10684 10685 10686 10687
10621 10622 10623 10626 10630 10631 10633 10634 10635 10637 10639 10640 10641 10643 10644 10647 10648 10648 10649 10652 10653 10654 10657 10658 10658 10658 10659 10659 10659 10660 10660 10661 10661 10661 10661 10661 10661 10663 10664 10665 10666 10669 10671 10673 10674 10674 10675 10675 10676 10678 10679 10681 10682 10683 10683 10682 10682 10682 10683 10683 10683 10683 10684 10684 10684 10684 10683 10683 10682 10682 10681 10681 10681 10681 10681 10681 10681 10682 10683 10683 10683 10684 10684 10684 10685 10686 10688 10689
10615 10616 10618 10622 10625 10626 10628 10629 10630 10633 10635 10636 10638 10639 10640 10642 10645 10645 10645 10648 10650 10652 10655 10655 10655 10657 10658 10657 10658 10659 10658 10659 10660 10660 10660 10661 10661 10662 10663 10664 10665 10668 10670 10673 10674 10674 10675 10676 10677 10678 10679 10680 10681 10682 10683 10683 10683 10683 10683 10684 10684 10684 10684 10685 10685 10685 10684 10684 10684 10683 10683 10683 10683 10682 10682 10682 10683 10683 10684 10685 10685 10685 10685 10685 10686 10687 10689 10690
10609 10610 10613 10617 10619 10621 10623 10624 10626 10629 10631 10633 10635 10636 10637 10638 10641 10641 10641 10644 10647 10650 10652 10653 10653 10655 10656 10656 10657 10657 10657 10657 10658 10658 10658 10659 10660 10661 10663 10664 10665 10666 10669 10671 10673 10674 10675 10675 10677 10678 10679 10680 10681 10682 10683 10683 10683 10683 10684 10684 10685 10686 10686 10685 10686 10685 10685 10685 10684 10684 10684 10684 10684 10684 10683 10683 10684 10685 10685 10686 10686 10686 10687 10687 10687 10688 10690 10692
10603 10604 10609 10613 10614 10616 10618 10619 10621 10624 10626 10629 10631 10632 10633 10634 10637 10638 10638 10640 10644 10647 10649 10650 10651 10652 10653 10654 10654 10655 10655 10655 10656 10656 10656 10657 10658 10660 10661 10663 10664 10665 10667 10670 10671 10673 10674 10675 10676 10678 10679 10680 10681 10682 10683 10684 10683 10683 10684 10684 10685 10687 10687 10686 10686 10686 10686 10685 10685 10684 10684 10685 10685 10685 10685 10685 10684 10685 10686 10687 10687 10687 10688 10688 10688 10689 10691 10692
10596 10599 10603 10607 10609 10610 10612 10615 10617 10619 10622 10624 10626 10628 10629 10630 10632 10634 10634 10637 10641 10644 10646 10647 10648 10648 10650 10651 10651 10652 10653 10653 10653 10654 10654 10655 10657 10658 10659 10660 10662 10664 10666 10668 10670 10672 10673 10675 10676 10677 10678 10679 10681 10682 10683 10684 10684 10683 10683 10684 10686 10687 10687 10687 10687 10687 10687 10686 10685 10685 10685 10685 10686 10686 10686 10686 10685 10685 10686 10687 10688 10688 10688 10689 10689 10690 10692 10693
10590 10594 10598 10601 10603 10604 10607 10610 10612 10614 10617 10620 10622 10623 10625 10626 10627 10629 10631 10634 10638 10641 10643 10644 10645 10645 10647 10649 10649 10650 10650 10651 10651 10652 10652 10654 10655 10656 10656 10657 10660 10663 10665 10667 10669 10671 10672 10674 10675 10676 10677 10678 10680 10682 10683 10683 10683 10683 10683 10684 10686 10687 10687 10687 10687 10688 10688 10687 10686 10686 10686 10686 10687 10687 10687 10687 10686 10686 10686 10686 10687 10688 10689 10689 10690 10691 10693 10694
10585 10589 10591 10594 10598 10599 10601 10605 10608 10609 10612 10615 10617 10619 10621 10622 10622 10624 10629 10631 10634 10637 10639 10640 10642 10643 10645 10646 10646 10648 10649 10649 10650 10650 10651 10652 10653 10653 10654 10657 10659 10661 10664 10666 10667 10669 10671 10673 10673 10674 10675 10677 10679 10681 10681 10682 10682 10682 10683 10684 10685 10686 10687 10688 10688 10688 10688 10688 10687 10687 10687 10687 10687 10687 10687 10687 10687 10687 10686 10686 10687 10688 10689 10690 10690 10692 10693 10695
10579 10582 10584 10588 10592 10594 10596 10600 10603 10604 10607 10610 10612 10615 10616 10616 10617 10621 10626 10627 10629 10633 10635 10637 10638 10640 10642 10644 10645 10646 10646 10648 10649 10649 10649 10650 10651 10651 10653 10655 10657 10660 10662 10664 10665 10667 10669 10671 10671 10672 10674 10676 10678 10679 10680 10681 10681 10682 10683 10684 10685 10686 10687 10688 10687 10688 10689 10688 10688 10688 10688 10688 10688 10688 10687 10687 10687 10687 10687 10687 10687 10688 10689 10690 10691 10692 10694 10695
10573 10575 10578 10581 10585 10588 10590 10594 10597 10599 10602 10605 10607 10610 10610 10611 10614 10619 10621 10623 10625 10628 10631 10634 10635 10636 10639 10641 10642 10643 10644 10646 10647 10648 10648 10648 10648 10649 10651 10653 10655 10657 10659 10661 10662 10664 10667 10669 10669 10670 10673 10675 10677 10678 10680 10680 10681 10683 10683 10683 10684 10685 10687 10688 10687 10687 10688 10688 10688 10689 10689 10688 10688 10688 10688 10688 10687 10688 10688 10687 10687 10688 10689 10691 10691 10692 10694 10695
10566 10568 10571 10575 10579 10583 10585 10588 10591 10594 10597 10600 10603 10604 10604 10607 10612 10614 10616 10618 10621 10624 10628 10630 10632 10633 10636 10638 10639 10640 10642 10643 10644 10645 10646 10646 10647 10647 10649 10651 10653 10655 10657 10658 10660 10662 10665 10666 10667 10669 10672 10673 10675 10677 10678 10680 10680 10682 10682 10683 10684 10685 10686 10687 10687 10687 10687 10688 10689 10689 10689 10689 10689 10688 10688 10688 10688 10688 10688 10688 10688 10688 10689 10690 10692 10693 10694 10695
10558 10562 10565 10568 10572 10577 10580 10582 10586 10589 10592 10595 10597 10597 10600 10605 10608 10609 10612 10614 10617 10621 10625 10627 10628 10630 10633 10635 10636 10637 10639 10640 10642 10642 10643 10644 10645 10646 10647 10649 10651 10652 10654 10656 10659 10660 10662 10664 10665 10667 10669 10671 10673 10675 10677 10679 10680 10681 10681 10682 10683 10684 10685 10686 10687 10687 10687 10688 10689 10689 10689 10689 10689 10689 10689 10689 10688 10688 10688 10688 10689 10689 10689 10690 10692 10693 10694 10696
10551 10555 10559 10562 10566 10571 10574 10577 10580 10583 10587 10589 10590 10593 10597 10601 10603 10605 10608 10610 10614 10618 10621 10623 10625 10626 10629 10631 10632 10634 10635 10637 10639 10639 10641 10642 10642 10643 10645 10646 10648 10650 10652 10654 10657 10658 10660 10661 10663 10665 10667 10669 10671 10674 10675 10677 10679 10680 10680 10680 10682 10683 10684 10685 10686 10686 10686 10687 10688 10689 10690 10690 10690 10690 10690 10690 10689 10689 10689 10689 10690 10690 10690 10690 10691 10692 10694 10695
10544 10549 10552 10556 10560 10564 10568 10571 10574 10577 10581 10583 10585 10589 10594 10597 10598 10601 10604 10607 10611 10614 10617 10619 10621 10622 10625 10628 10629 10630 10632 10634 10636 10637 10638 10639 10640 10641 10642 10643 10645 10646 10649 10652 10654 10655 10657 10658 10660 10663 10665 10666 10668 10671 10674 10676 10677 10678 10679 10679 10680 10681 10682 10683 10684 10685 10686 10686 10687 10688 10689 10690 10690 10690 10691 10690 10690 10690 10690 10690 10690 10691 10691 10690 10691 10692 10693 10694
10537 10542 10546 10550 10554 10558 10561 10565 10569 10571 10575 10578 10581 10585 10590 10592 10594 10597 10600 10603 10606 10609 10612 10615 10616 10618 10620 10623 10625 10627 10629 10631 10632 10634 10635 10637 10637 10638 10639 10641 10642 10643 10645 10648 10650 10652 10654 10655 10658 10661 10663 10663 10665 10668 10672 10674 10675 10676 10677 10677 10678 10679 10680 10681 10682 10683 10684 10685 10686 10687 10688 10689 10690 10690 10690 10691 10690 10691 10691 10691 10690 10691 10691 10691 10691 10691 10692 10693
10530 10536 10539 10543 10547 10551 10555 10559 10562 10565 10568 10572 10576 10580 10584 10586 10589 10592 10595 10598 10601 10604 10606 10609 10611 10613 10616 10619 10621 10623 10625 10627 10628 10630 10632 10633 10634 10635 10636 10638 10640 10641 10642 10644 10646 10648 10651 10652 10654 10657 10660 10661 10663 10665 10668 10671 10672 10673 10674 10675 10676 10676 10678 10679 10680 10681 10683 10684 10685 10686 10687 10688 10688 10688 10689 10690 10691 10690 10690 10690 10690 10691 10691 10691 10690 10690 10691 10691
10524 10529 10532 10536 10540 10544 10548 10552 10555 10559 10562 10566 10570 10574 10577 10580 10583 10586 10589 10592 10595 10598 10601 10604 10607 10610 10612 10615 10617 10619 10621 10623 10624 10626 10628 10629 10631 10633 10635 10636 10637 10638 10639 10640 10642 10645 10647 10649 10651 10654 10657 10658 10660 10663 10664 10666 10668 10670 10672 10673 10674 10674 10675 10677 10678 10679 10681 10683 10684 10685 10686 10686 10687 10687 10688 10689 10690 10690 10689 10689 10690 10690 10690 10690 10690 10690 10690 10690
10517 10521 10525 10529 10533 10537 10542 10545 10548 10552 10557 10561 10565 10568 10572 10576 10579 10582 10585 10587 10590 10593 10595 10599 10603 10606 10607 10610 10612 10614 10616 10618 10620 10622 10624 10626 10628 10630 10632 10633 10634 10635 10636 10637 10639 10641 10644 10645 10648 10651 10653 10655 10657 10659 10661 10662 10665 10667 10669 10670 10671 10671 10672 10674 10676 10677 10679 10681 10682 10683 10683 10684 10685 10685 10685 10686 10687 10688 10688 10688 10688 10688 10689 10689 10690 10690 10690 10690
10510 10514 10519 10523 10526 10531 10535 10538 10541 10546 10551 10555 10559 10562 10566 10571 10574 10578 10580 10582 10585 10587 10589 10594 10599 10600 10602 10605 10607 10609 10611 10613 10615 10618 10620 10623 10624 10626 10628 10629 10630 10631 10632 10634 10635 10637 10640 10641 10644 10647 10649 10651 10653 10656 10658 10659 10661 10663 10665 10666 10668 10668 10670 10671 10673 10675 10677 10679 10679 10680 10680 10682 10682 10683 10683 10683 10684 10685 10686 10686 10686 10687 10687 10688 10688 10689 10689 10690
10504 10508 10512 10516 10520 10525 10528 10531 10535 10540 10544 10548 10552 10556 10561 10565 10569 10572 10574 10577 10579 10582 10585 10589 10593 10595 10597 10600 10602 10604 10606 10608 10610 10613 10616 10619 10620 10622 10623 10625 10626 10627 10629 10630 10631 10633 10635 10636 10639 10642 10645 10647 10649 10651 10653 10655 10657 10659 10661 10662 10664 10665 10667 10669 10671 10673 10675 10676 10677 10677 10678 10679 10680 10680 10680 10681 10682 10682 10683 10684 10686 10686 10686 10686 10687 10688 10688 10689
10498 10502 10505 10510 10514 10518 10521 10524 10529 10533 10538 10542 10546 10550 10555 10559 10563 10566 10568 10571 10573 10576 10580 10584 10588 10590 10593 10596 10597 10599 10601 10603 10606 10609 10611 10614 10616 10617 10619 10621 10622 10623 10624 10626 10627 10629 10630 10632 10635 10638 10641 10643 10644 10646 10649 10651 10653 10655 10657 10659 10661 10662 10664 10666 10668 10671 10673 10674 10675 10674 10675 10676 10677 10677 10678 10679 10680 10681 10681 10682 10684 10685 10685 10685 10685 10686 10687 10688
10492 10496 10499 10503 10507 10511 10515 10518 10522 10527 10531 10536 10540 10544 10548 10552 10556 10559 10562 10564 10567 10570 10574 10579 10582 10585 10587 10590 10592 10594 10596 10599 10601 10604 10607 10609 10611 10613 10614 10616 10618 10619 10621 10622 10624 10625 10626 10629 10631 10633 10636 10639 10641 10642 10644 10647 10650 10652 10654 10655 10657 10658 10660 10662 10664 10667 10669 10671 10672 10672 10672 10673 10674 10675 10676 10677 10678 10679 10680 10680 10682 10683 10684 10684 10685 10685 10686 10686
10486 10490 10493 10497 10501 10504 10508 10512 10516 10520 10525 10529 10533 10537 10542 10546 10550 10553 10556 10559 10561 10564 10568 10572 10576 10579 10582 10585 10587 10589 10591 10593 10596 10599 10602 10604 10606 10608 10610 10611 10613 10615 10617 10618 10619 10620 10622 10625 10627 10629 10631 10634 10636 10638 10640 10642 10645 10647 10649 10651 10652 10654 10656 10658 10660 10663 10665 10667 10668 10669 10669 10670 10671 10672 10673 10674 10675 10677 10677 10678 10679 10681 10682 10683 10684 10684 10685 10685
10480 10484 10487 10491 10494 10497 10501 10505 10509 10514 10518 10523 10527 10531 10535 10539 10543 10547 10550 10553 10555 10557 10561 10565 10569 10572 10575 10578 10581 10583 10585 10588 10591 10594 10597 10598 10601 10603 10605 10606 10608 10611 10613 10614 10615 10616 10618 10620 10622 10624 10627 10629 10632 10634 10636 10638 10640 10643 10645 10647 10649 10650 10652 10654 10657 10659 10661 10663 10664 10666 10667 10667 10668 10669 10670 10671 10672 10674 10675 10675 10676 10677 10679 10680 10681 10682 10683 10683
10474 10477 10480 10484 10487 10490 10495 10499 10503 10508 10512 10516 10520 10524 10528 10533 10538 10542 10545 10547 10549 10552 10554 10558 10562 10566 10568 10571 10574 10576 10579 10582 10585 10588 10591 10593 10595 10597 10600 10601 10603 10606 10608 10609 10610 10612 10614 10616 10618 10620 10622 10625 10627 10629 10632 10634 10636 10638 10640 10642 10644 10646 10648 10650 10653 10655 10657 10658 10660 10662 10663 10664 10665 10666 10667 10668 10669 10670 10671 10672 10673 10674 10675 10676 10678 10679 10680 10680
10467 10470 10474 10478 10481 10484 10488 10492 10497 10502 10506 10511 10514 10517 10522 10527 10531 10536 10539 10542 10544 10546 10549 10552 10556 10559 10562 10565 10568 10570 10572 10575 10578 10581 10584 10586 10588 10591 10594 10596 10598 10600 10602 10604 10606 10608 10609 10612 10615 10616 10618 10621 10622 10625 10627 10630 10632 10634 10635 10637 10639 10641 10643 10646 10648 10650 10652 10654 10656 10658 10659 10661 10662 10663 10664 10665 10666 10667 10668 10669 10669 10670 10671 10672 10673 10675 10676 10677
10460 10464 10468 10472 10475 10479 10483 10486 10491 10496 10500 10505 10508 10511 10516 10521 10525 10529 10534 10537 10539 10541 10544 10547 10550 10553 10556 10559 10562 10564 10566 10569 10572 10575 10578 10580 10583 10585 10588 10591 10593 10595 10597 10599 10602 10603 10606 10608 10611 10613 10614 10616 10618 10621 10624 10625 10627 10629 10630 10632 10634 10635 10638 10640 10643 10645 10647 10649 10651 10653 10655 10657 10658 10659 10660 10661 10662 10663 10664 10665 10666 10667 10668 10668 10669 10670 10672 10673